[[{"header":{"parameterUnit":"m.s-1","parameterCategory":1,"la1":30.2991,"la2":30.254,"lo1":-89.0895,"lo2":-89.0444,"dy":0.0017,"dx":0.0017,"nx":28,"ny":28,"refTime":"2024-10-03T03:00:00:Z","depth":0,"parameterNumber":2,"parameterNumberName":"U-component_of_WINDS"},"data":[0,0,0,0,0,0,0,0,0,0,0,0,0,0,0,0,0,0,0,0,0,0,0,0,0,0,0,0,0,0,0,0,0,0,0,0,0,0,0,0,0,0,0,0,0,0,0,0,0,0,0,0,0,0,0,0,0,0,-0.9045,-0.9045,0,-0.9057,-0.9057,-0.9057,-0.9004,-0.9002,-0.9001,-0.8999,-0.9015,-0.9017,-0.9018,0,0,0,0,0,0,0,0,0,0,0,0,0,-0.8977,-0.8978,-0.9045,-0.9045,-0.9045,-0.9057,-0.9057,-0.9057,-0.9004,-0.9002,-0.9,-0.8998,-0.9014,-0.9016,-0.9019,0,0,0,0,0,0,0,0,0,0,0,0,0,-0.9,-0.8979,-0.9045,-0.902,-0.9017,-0.9057,-0.9057,-0.9057,-0.9004,-0.9002,-0.9,-0.8997,-0.9013,-0.9016,-0.9019,-0.9084,0,0,-0.9028,-0.9029,0,0,0,0,0,0,0,0,-0.8998,-0.9002,-0.9023,-0.9021,-0.9019,-0.9026,-0.9039,-0.9066,-0.9005,-0.901,-0.8999,-0.8996,-0.9021,-0.9023,-0.903,-0.9085,-0.9085,-0.9028,-0.903,-0.9031,-0.9032,0,0,0,0,0,0,0,-0.8997,-0.9001,-0.905,-0.9024,-0.9021,-0.9009,-0.9009,-0.9044,-0.9028,-0.9009,-0.9005,-0.9007,-0.9019,-0.9028,-0.903,-0.9085,-0.9028,-0.903,-0.9032,-0.9033,-0.9194,-0.9197,0,0,0,0,0,0,-0.8998,-0.9,-0.9049,-0.905,-0.9003,-0.9012,-0.9012,-0.9026,-0.9028,-0.9026,-0.9009,-0.9005,-0.9024,-0.9027,-0.9031,-0.9108,-0.9031,-0.9033,-0.9035,-0.9192,-0.9195,-0.9198,0,0,0,0,0,0,-0.8997,-0.9003,-0.9049,-0.9024,-0.9029,-0.9015,-0.9032,-0.9028,-0.9037,-0.9028,-0.9025,-0.9021,-0.9022,-0.9027,-0.9071,-0.9108,-0.9035,-0.9037,-0.9189,-0.9193,-0.9196,-0.9262,0,0,0,0,0,0,-0.8995,-0.9003,-0.9027,-0.9025,-0.903,-0.9088,-0.9034,-0.903,-0.9041,-0.9035,-0.9038,-0.9036,-0.9021,-0.9067,-0.9074,-0.911,-0.9039,-0.9185,-0.919,-0.9195,-0.9257,-0.9268,-0.9277,0,0,0,0,0,-0.8993,-0.9045,-0.9028,-0.9035,-0.906,-0.909,-0.9094,-0.9074,-0.9044,-0.9069,-0.9063,-0.9036,-0.9102,-0.9072,-0.9079,-0.9117,-0.9183,-0.9189,-0.9195,-0.9252,-0.9266,-0.9277,0,0,0,0,0,0,-0.9053,-0.9045,-0.9026,-0.9079,-0.9086,-0.9081,-0.9112,-0.9089,-0.9105,-0.9099,-0.9075,-0.9076,-0.9125,-0.9125,-0.9092,-0.918,-0.9137,-0.9145,-0.9179,-0.9191,-0.9202,-0.9202,-0.9042,0,0,0,0,0,-0.9072,-0.9097,-0.9088,-0.9136,-0.9141,-0.9126,-0.9138,-0.9122,-0.9129,-0.9132,-0.9129,-0.9137,-0.916,-0.9175,-0.9195,-0.9256,-0.9256,-0.9285,-0.9295,-0.9304,-0.9311,-0.9344,-0.9357,-0.9217,-0.9217,-0.9217,0,0,-0.9113,-0.9111,-0.9129,-0.9149,-0.9152,-0.9179,-0.9129,-0.9159,-0.9179,-0.9137,-0.9178,-0.9177,-0.9184,-0.9237,-0.926,-0.9239,-0.935,-0.9311,-0.9318,-0.9321,-0.9352,-0.9365,-0.9377,-0.9221,-0.922,-0.9219,0,0,-0.9201,-0.9202,-0.9242,-0.9246,-0.9252,-0.9241,-0.9251,-0.925,-0.9247,-0.9288,-0.9257,-0.928,-0.9319,-0.9326,-0.9335,-0.9425,-0.9401,-0.9432,-0.9487,-0.9519,-0.953,-0.954,-0.9573,-0.9586,-0.9439,-0.9439,-0.9439,0,-0.9252,-0.929,-0.9266,-0.9299,-0.9309,-0.927,-0.9312,-0.9317,-0.9329,-0.9337,-0.9312,-0.9361,-0.9363,-0.9417,-0.9439,-0.9447,-0.9458,-0.9432,-0.953,-0.954,-0.9548,-0.958,-0.9593,-0.9443,-0.9442,-0.9442,-0.9442,0,-0.9352,-0.938,-0.9412,-0.9424,-0.9437,-0.9474,-0.9456,-0.9473,-0.9456,-0.9448,-0.9491,-0.9492,-0.9512,-0.9523,-0.9507,-0.9575,-0.9562,-0.9534,-0.9491,-0.9566,-0.9596,-0.9608,-0.9448,-0.9447,-0.9446,-0.9445,0,0,-0.9481,-0.9478,-0.9491,-0.9496,-0.9498,-0.9519,-0.9554,-0.9573,-0.9588,-0.9598,-0.9628,-0.9661,-0.9635,-0.9645,-0.9629,-0.9657,-0.973,-0.9625,-0.9625,-0.9646,-0.9807,-0.983,-0.9844,-0.9713,-0.9715,-0.9717,-0.9807,0,-0.9569,-0.9628,-0.9607,-0.9669,-0.9694,-0.9657,-0.9688,-0.9694,-0.9687,-0.9708,-0.9701,-0.9726,-0.9689,-0.9695,-0.9721,-0.9715,-0.9762,-0.9708,-0.9742,-0.9744,-0.9744,-0.9859,-0.9883,-0.9969,-0.9818,-0.982,-0.9822,0,-0.968,-0.9693,-0.9756,-0.9755,-0.9765,-0.9793,-0.9808,-0.9828,-0.9834,-0.9827,-0.9838,-0.9816,-0.9851,-0.9806,-0.9855,-0.9819,-0.9832,-0.9831,-0.9834,-0.9838,-0.9789,-0.9869,-0.9995,-1.0009,-0.9839,-0.9838,-0.9837,0,-0.9769,-0.9802,-0.9845,-0.985,-0.9849,-0.987,-0.987,-0.9873,-0.9886,-0.9899,-0.9908,-0.9925,-0.9936,-0.995,-0.9934,-0.9902,-0.9986,-0.9939,-0.9983,-0.9984,-1.0004,-1.0004,-1.0137,-1.0009,-1.0009,-1.0008,-1.0008,0,-0.9871,-0.9912,-0.9885,-0.9912,-0.9957,-0.9932,-0.9978,-0.9974,-0.9977,-1.0003,-0.9971,-0.9996,-0.9972,-0.9995,-0.9982,-1.0026,-1.003,-1.0027,-1.0023,-1.0031,-1.0032,-1.004,-1.0035,-1.0012,-1.0011,-1.001,-1.001,0,-0.9979,-0.9963,-1.0008,-1.0002,-1.0002,-1.0035,-1.0031,-1.0056,-1.0046,-1.008,-1.0086,-1.0072,-1.0098,-1.0082,-1.0108,-1.0099,-1.0156,-1.0144,-1.0155,-1.0152,-1.0197,-1.0194,-1.0342,-1.0361,-1.0219,-1.0221,-1.0222,0,-1.0046,-1.0077,-1.0075,-1.0089,-1.0092,-1.0116,-1.0128,-1.0105,-1.0119,-1.0127,-1.0152,-1.0174,-1.0191,-1.0234,-1.0226,-1.0246,-1.0235,-1.0286,-1.0238,-1.0245,-1.0238,-1.0238,-1.0241,-1.0296,-1.0298,-1.0299,-1.03,0,-1.0168,-1.0158,-1.0177,-1.0193,-1.0208,-1.022,-1.0229,-1.0243,-1.022,-1.0238,-1.0263,-1.0276,-1.0302,-1.0325,-1.0342,-1.0343,-1.0319,-1.0315,-1.0326,-1.0336,-1.0342,-1.0341,-1.0183,-1.0312,-1.0311,-1.031,-1.0309,-1.0309,-1.0259,-1.0285,-1.0287,-1.0309,-1.0313,-1.0323,-1.0346,-1.0339,-1.0359,-1.0378,-1.0363,-1.0394,-1.0398,-1.0418,-1.0422,-1.0446,-1.0426,-1.0442,-1.0447,-1.0452,-1.0459,-1.0336,-1.0449,-1.0449,-1.0448,-1.0448,-1.0448,0,-1.038,-1.0379,-1.04,-1.0413,-1.0431,-1.0404,-1.0413,-1.043,-1.0457,-1.0463,-1.048,-1.0509,-1.0531,-1.0525,-1.0545,-1.0566,-1.0555,-1.0572,-1.0572,-1.0573,-1.0475,-1.0464,-1.0581,-1.0581,-1.0581,-1.0581,-1.0581,-1.0581,-1.0445,-1.0488,-1.0479,-1.0523,-1.0522,-1.0551,-1.0559,-1.0567,-1.0572,-1.0606,-1.0624,-1.0619,-1.0621,-1.0641,-1.066,-1.0658,-1.0668,-1.069,-1.0683,-1.0593,-1.058,-1.0567,-1.0557,-1.0691,-1.0691,-1.078,-1.078,-1.0781]},{"header":{"parameterUnit":"m.s-1","parameterCategory":1,"la1":30.2991,"la2":30.254,"lo1":-89.0895,"lo2":-89.0444,"dy":0.0017,"dx":0.0017,"nx":28,"ny":28,"refTime":"2024-10-03T03:00:00:Z","depth":0,"parameterNumber":3,"parameterNumberName":"V-component_of_WINDS"},"data":[0,0,0,0,0,0,0,0,0,0,0,0,0,0,0,0,0,0,0,0,0,0,0,0,0,0,0,0,0,0,0,0,0,0,0,0,0,0,0,0,0,0,0,0,0,0,0,0,0,0,0,0,0,0,0,0,0,0,-1.6433,-1.6433,0,-1.6455,-1.6455,-1.6456,-1.6452,-1.6452,-1.6451,-1.6451,-1.6472,-1.6473,-1.6474,0,0,0,0,0,0,0,0,0,0,0,0,0,-1.6385,-1.6386,-1.6433,-1.6433,-1.6434,-1.6455,-1.6455,-1.6456,-1.6452,-1.6452,-1.6451,-1.6451,-1.6472,-1.6473,-1.6474,0,0,0,0,0,0,0,0,0,0,0,0,0,-1.6407,-1.6387,-1.6433,-1.6434,-1.6435,-1.6455,-1.6456,-1.6456,-1.6452,-1.6452,-1.6451,-1.6451,-1.6471,-1.6473,-1.6474,-1.6494,0,0,-1.6478,-1.6479,0,0,0,0,0,0,0,0,-1.6406,-1.6408,-1.6434,-1.6434,-1.6435,-1.645,-1.6446,-1.6469,-1.6452,-1.6446,-1.6451,-1.645,-1.6465,-1.6467,-1.6472,-1.6495,-1.6496,-1.6478,-1.6479,-1.648,-1.648,0,0,0,0,0,0,0,-1.6404,-1.6407,-1.6442,-1.6434,-1.6435,-1.6433,-1.6436,-1.6451,-1.6458,-1.6446,-1.6446,-1.6449,-1.6465,-1.6471,-1.6473,-1.6496,-1.6478,-1.6479,-1.648,-1.6481,-1.6535,-1.6536,0,0,0,0,0,0,-1.6402,-1.6406,-1.6441,-1.6442,-1.6419,-1.6435,-1.6437,-1.6446,-1.6458,-1.6459,-1.6449,-1.6448,-1.6469,-1.6471,-1.6473,-1.6497,-1.648,-1.6481,-1.6482,-1.6534,-1.6535,-1.6536,0,0,0,0,0,0,-1.6401,-1.6406,-1.644,-1.6424,-1.6429,-1.6436,-1.6446,-1.6447,-1.6452,-1.646,-1.6461,-1.6454,-1.6469,-1.6472,-1.6489,-1.6498,-1.6482,-1.6483,-1.6534,-1.6535,-1.6535,-1.6544,0,0,0,0,0,0,-1.64,-1.6405,-1.6413,-1.6425,-1.6429,-1.6456,-1.6446,-1.6447,-1.6455,-1.6454,-1.6465,-1.6466,-1.6468,-1.6487,-1.649,-1.6499,-1.6484,-1.6533,-1.6534,-1.6535,-1.6543,-1.6545,-1.6547,0,0,0,0,0,-1.6398,-1.6415,-1.6414,-1.6418,-1.644,-1.6456,-1.6459,-1.6462,-1.6456,-1.6464,-1.6469,-1.6466,-1.6496,-1.6488,-1.6492,-1.6502,-1.6532,-1.6534,-1.6535,-1.6542,-1.6545,-1.6547,0,0,0,0,0,0,-1.6404,-1.6416,-1.6415,-1.6436,-1.6445,-1.6456,-1.6465,-1.6464,-1.6475,-1.6474,-1.6476,-1.6479,-1.6496,-1.6501,-1.6492,-1.6521,-1.6513,-1.6516,-1.6517,-1.652,-1.6522,-1.652,-1.6485,0,0,0,0,0,-1.6408,-1.642,-1.643,-1.6447,-1.6452,-1.6458,-1.6465,-1.6467,-1.6476,-1.648,-1.6486,-1.6494,-1.6506,-1.6513,-1.6524,-1.6544,-1.6546,-1.6552,-1.6554,-1.6556,-1.6558,-1.6567,-1.657,-1.654,-1.654,-1.654,0,0,-1.6415,-1.6423,-1.6431,-1.6449,-1.6456,-1.6468,-1.6461,-1.6475,-1.6484,-1.6481,-1.6498,-1.6503,-1.6513,-1.6531,-1.6539,-1.6535,-1.6566,-1.6558,-1.6559,-1.656,-1.6569,-1.6572,-1.6574,-1.6541,-1.6541,-1.6541,0,0,-1.6435,-1.6443,-1.6458,-1.6465,-1.6477,-1.648,-1.6484,-1.6495,-1.6498,-1.6515,-1.6513,-1.6523,-1.6543,-1.655,-1.6556,-1.6578,-1.6576,-1.6582,-1.6592,-1.6601,-1.6604,-1.6606,-1.6613,-1.6616,-1.6584,-1.6584,-1.6584,0,-1.6443,-1.6462,-1.6466,-1.6479,-1.6487,-1.6485,-1.65,-1.6507,-1.6521,-1.6525,-1.6521,-1.6546,-1.6552,-1.6572,-1.6577,-1.6582,-1.6586,-1.658,-1.6603,-1.6605,-1.6607,-1.6614,-1.6617,-1.6584,-1.6584,-1.6584,-1.6584,0,-1.6471,-1.6484,-1.6495,-1.6509,-1.6517,-1.6531,-1.6536,-1.6544,-1.6545,-1.6549,-1.6565,-1.6573,-1.6585,-1.659,-1.6591,-1.6609,-1.6607,-1.6603,-1.6595,-1.6611,-1.6617,-1.662,-1.6585,-1.6585,-1.6585,-1.6584,0,0,-1.6494,-1.651,-1.6514,-1.652,-1.6532,-1.6542,-1.6556,-1.6568,-1.6575,-1.6584,-1.6595,-1.6612,-1.6608,-1.6615,-1.6617,-1.6625,-1.6641,-1.662,-1.662,-1.6623,-1.6661,-1.6663,-1.6666,-1.664,-1.664,-1.6641,-1.666,0,-1.6515,-1.654,-1.6543,-1.6564,-1.6576,-1.6575,-1.6587,-1.6595,-1.6599,-1.661,-1.6614,-1.6625,-1.662,-1.6624,-1.6633,-1.6637,-1.6649,-1.6636,-1.6649,-1.665,-1.6646,-1.667,-1.6672,-1.669,-1.6663,-1.6663,-1.6663,0,-1.6542,-1.6553,-1.6576,-1.6586,-1.6591,-1.6601,-1.6613,-1.6623,-1.6632,-1.6634,-1.6642,-1.6642,-1.6655,-1.6647,-1.6665,-1.6656,-1.6662,-1.6665,-1.6666,-1.6666,-1.6657,-1.667,-1.6696,-1.6698,-1.6668,-1.6667,-1.6667,0,-1.6556,-1.6576,-1.6592,-1.6598,-1.661,-1.6617,-1.6623,-1.6631,-1.6638,-1.6648,-1.6652,-1.6663,-1.6669,-1.6677,-1.668,-1.6674,-1.6698,-1.669,-1.6699,-1.6699,-1.6703,-1.6703,-1.6729,-1.6708,-1.6708,-1.6708,-1.6708,0,-1.6578,-1.6592,-1.6599,-1.6608,-1.6624,-1.6627,-1.6642,-1.6647,-1.6654,-1.6664,-1.6664,-1.6674,-1.6677,-1.6687,-1.6689,-1.6703,-1.6706,-1.6707,-1.6708,-1.6707,-1.6707,-1.671,-1.6709,-1.6709,-1.6709,-1.6709,-1.6709,0,-1.6596,-1.6601,-1.6618,-1.6629,-1.6632,-1.6642,-1.6651,-1.666,-1.6664,-1.6677,-1.668,-1.6686,-1.6697,-1.6701,-1.6715,-1.6716,-1.6732,-1.6732,-1.6729,-1.6729,-1.6738,-1.6736,-1.6767,-1.677,-1.6748,-1.6748,-1.6748,0,-1.6609,-1.662,-1.6631,-1.6638,-1.6644,-1.6656,-1.6663,-1.6666,-1.6674,-1.6685,-1.6692,-1.6704,-1.6713,-1.6731,-1.6736,-1.6747,-1.6746,-1.6756,-1.6748,-1.6746,-1.6745,-1.6744,-1.6745,-1.6757,-1.6757,-1.6758,-1.6758,0,-1.6632,-1.6634,-1.6645,-1.6656,-1.6665,-1.6674,-1.6683,-1.6689,-1.6693,-1.6702,-1.6714,-1.6721,-1.6735,-1.6746,-1.6757,-1.6761,-1.676,-1.6761,-1.6763,-1.6762,-1.676,-1.676,-1.6733,-1.676,-1.6759,-1.6759,-1.6759,-1.6759,-1.6647,-1.6656,-1.6666,-1.6678,-1.6685,-1.6693,-1.6702,-1.6707,-1.6717,-1.6729,-1.6731,-1.6743,-1.6752,-1.6766,-1.6771,-1.678,-1.6777,-1.6781,-1.6782,-1.6783,-1.6783,-1.6759,-1.6782,-1.6782,-1.6782,-1.6782,-1.6782,0,-1.6669,-1.6675,-1.6686,-1.6699,-1.6708,-1.6707,-1.6716,-1.6724,-1.6735,-1.6743,-1.6752,-1.6766,-1.6776,-1.6782,-1.6793,-1.6799,-1.6799,-1.6802,-1.6801,-1.6802,-1.6785,-1.6782,-1.6802,-1.6802,-1.6802,-1.6802,-1.6802,-1.6802,-1.6682,-1.6697,-1.67,-1.6718,-1.6724,-1.6737,-1.6742,-1.675,-1.6756,-1.6771,-1.678,-1.6784,-1.6791,-1.6802,-1.6812,-1.6813,-1.6816,-1.682,-1.6821,-1.6805,-1.6803,-1.6801,-1.6798,-1.6821,-1.6821,-1.6836,-1.6836,-1.6836]}]]